Flag for U.S.A. Weather past 2 weeks in Bentonville, Arkansas, U.S.A.

Now
82 °F

Broken clouds.


Feels Like: 85 °F
Forecast: 66 / 85 °F
Wind: 12 mph from Southwest

Location: Bentonville Weather Observing Station

Current Time: Oct 1, 2014 at 1:41:01 PM

Latest Report: Oct 1, 2014 at 12:55 PM


Visibility: 10 mi

Pressure: 29.86 "Hg

Humidity: 58%

Dew point: 66 °F

Location of BentonvilleLocation

Historic Weather in Bentonville — Graph

°F

Bentonville temperature yesterday

Maximum temperature yesterday: 82 °F (at 1:55 PM)
Minimum temperature yesterday: 59 °F (at 4:15 AM)
Average temperature yesterday: 70 °F

Past Weeks' High & Low Weather Summary

 TemperatureHumidityPressure
High86 °F (Sep 17, 3:15 PM)94% (Sep 17, 12:35 AM)30.32 "Hg (Sep 17, 12:35 AM)
Low52 °F (Sep 22, 7:15 AM)30% (Sep 24, 4:15 PM)29.84 "Hg (Oct 1, 3:55 AM)
Average69 °F70%30.10 "Hg
* Reported Sep 16 12:15 PM — Oct 1 12:35 PM, Bentonville, Weather by CustomWeather, © 2014

Note: Actual official high and low records may vary slightly from our data, if they occured in-between our weather recording intervals... More about our weather records

Advertising

Bentonville weather history for previous 24 hours

 ConditionsComfort  
Time TempWeatherWind HumidityBarometerVisibility
12:35 PM
Oct 1
81 °FBroken clouds.10 mph62%29.86 "Hg10 mi
12:15 PM81 °FMostly cloudy.14 mph62%29.87 "Hg10 mi
11:55 AM81 °FMostly cloudy.13 mph62%29.87 "Hg10 mi
11:35 AM79 °FMostly cloudy.13 mph65%29.88 "Hg10 mi
11:15 AM79 °FMostly cloudy.13 mph65%29.88 "Hg10 mi
10:55 AM79 °FOvercast.9 mph65%29.88 "Hg10 mi
10:35 AM79 °FPartly sunny.10 mph65%29.88 "Hg10 mi
10:15 AM77 °FPartly sunny.9 mph69%29.88 "Hg10 mi
9:55 AM77 °FPassing clouds.12 mph65%29.88 "Hg10 mi
9:35 AM75 °FSunny.8 mph69%29.88 "Hg10 mi
9:15 AM73 °FSunny.9 mph69%29.88 "Hg10 mi
8:55 AM72 °FPassing clouds.6 mph69%29.88 "Hg10 mi
8:35 AM72 °FPassing clouds.6 mph69%29.87 "Hg10 mi
8:15 AM70 °FSunny.5 mph73%29.87 "Hg10 mi
7:55 AM66 °FClear.6 mph78%29.86 "Hg10 mi
7:35 AM66 °FClear.6 mph73%29.85 "Hg10 mi
6:55 AM66 °FClear.5 mph73%29.85 "Hg10 mi
6:35 AM64 °FClear.6 mph78%29.84 "Hg10 mi
6:15 AM64 °FClear.3 mph78%29.84 "Hg10 mi
5:55 AM64 °FClear.6 mph78%29.84 "Hg10 mi
5:35 AM64 °FClear.5 mph78%29.85 "Hg10 mi
5:15 AM64 °FClear.7 mph78%29.85 "Hg10 mi
4:55 AM64 °FClear.3 mph78%29.85 "Hg10 mi
4:35 AM64 °FClear.5 mph78%29.85 "Hg10 mi
4:15 AM64 °FClear.6 mph78%29.85 "Hg10 mi
3:55 AM64 °FClear.3 mph78%29.84 "Hg10 mi
3:35 AM64 °FPassing clouds.No wind78%29.85 "Hg10 mi
3:15 AM64 °FPassing clouds.6 mph78%29.85 "Hg10 mi
2:55 AM64 °FClear.5 mph78%29.86 "Hg10 mi
2:35 AM64 °FClear.6 mph78%29.86 "Hg10 mi
2:15 AM64 °FClear.8 mph78%29.86 "Hg10 mi
1:55 AM64 °FClear.8 mph78%29.86 "Hg10 mi
1:35 AM64 °FClear.7 mph78%29.86 "Hg10 mi
12:55 AM64 °FClear.7 mph78%29.87 "Hg10 mi
12:35 AM64 °FClear.7 mph78%29.87 "Hg10 mi
12:15 AM64 °FClear.5 mph78%29.87 "Hg10 mi
11:55 PM
Sep 30
64 °FClear.3 mph78%29.87 "Hg10 mi
11:35 PM66 °FClear.6 mph73%29.87 "Hg10 mi
11:15 PM66 °FClear.6 mph73%29.87 "Hg10 mi
10:55 PM66 °FClear.6 mph73%29.87 "Hg10 mi
10:35 PM66 °FClear.6 mph73%29.87 "Hg10 mi
10:15 PM66 °FClear.5 mph73%29.87 "Hg10 mi
9:55 PM66 °FClear.6 mph73%29.87 "Hg10 mi
9:35 PM68 °FClear.6 mph69%29.87 "Hg10 mi
9:15 PM70 °FClear.6 mph64%29.87 "Hg10 mi
8:55 PM70 °FClear.6 mph64%29.87 "Hg10 mi
8:35 PM70 °FClear.6 mph69%29.86 "Hg10 mi
8:15 PM72 °FClear.8 mph65%29.86 "Hg10 mi
7:55 PM72 °FSunny.7 mph65%29.87 "Hg10 mi
7:35 PM73 °FSunny.7 mph61%29.87 "Hg10 mi
7:15 PM73 °FSunny.6 mph61%29.87 "Hg10 mi
6:55 PM75 °FScattered clouds.7 mph57%29.87 "Hg10 mi
6:35 PM77 °FOvercast.8 mph54%29.87 "Hg10 mi
6:15 PM77 °FPartly sunny.9 mph51%29.87 "Hg10 mi
5:55 PM79 °FOvercast.8 mph51%29.87 "Hg10 mi
5:35 PM79 °FOvercast.8 mph51%29.88 "Hg10 mi
5:15 PM79 °FOvercast.9 mph51%29.88 "Hg10 mi
4:55 PM81 °FPartly sunny.8 mph48%29.88 "Hg10 mi
4:35 PM81 °FPartly sunny.9 mph48%29.88 "Hg10 mi
4:15 PM81 °FPartly sunny.10 mph48%29.88 "Hg10 mi
3:35 PM79 °FScattered clouds.8 mph48%29.89 "Hg10 mi
3:15 PM82 °FPassing clouds.12 mph42%29.89 "Hg10 mi
2:55 PM82 °FBroken clouds.8 mph42%29.90 "Hg10 mi
2:35 PM81 °FScattered clouds.12 mph45%29.91 "Hg10 mi
2:15 PM81 °FPassing clouds.7 mph45%29.92 "Hg10 mi
1:55 PM82 °FPassing clouds.7 mph42%29.93 "Hg10 mi
1:35 PM81 °FScattered clouds.8 mph45%29.94 "Hg10 mi
Weather by CustomWeather, © 2014

See weather overviewHow to use our weather pages